Time,TemperatureF,DewpointF,PressureIn,WindDirection,WindDirectionDegrees,WindSpeedMPH,WindSpeedGustMPH,Humidity,HourlyPrecipIn,Conditions,Clouds,dailyrainin,SoftwareType,DateUTC
2013-02-20 00:01:00,24.0,9.0,30.25,SE,132,0.0,6.0,51,0.00,,,0.00,,2013-02-20 06:01:00,
2013-02-20 00:11:00,24.0,9.0,30.25,SE,132,0.0,6.0,51,0.00,,,0.00,,2013-02-20 06:11:00,
2013-02-20 00:21:00,24.0,8.0,30.24,ENE,72,1.0,4.0,50,0.00,,,0.00,,2013-02-20 06:21:00,
2013-02-20 00:31:00,24.0,8.0,30.24,ESE,105,0.0,3.0,50,0.00,,,0.00,,2013-02-20 06:31:00,
2013-02-20 00:42:00,24.0,8.0,30.24,ESE,105,0.0,3.0,50,0.00,,,0.00,,2013-02-20 06:42:00,
2013-02-20 00:51:00,24.0,7.0,30.24,ESE,111,0.0,2.0,48,0.00,,,0.00,,2013-02-20 06:51:00,
2013-02-20 01:01:00,24.0,7.0,30.24,SE,132,0.0,4.0,47,0.00,,,0.00,,2013-02-20 07:01:00,
2013-02-20 01:11:00,24.0,7.0,30.24,SE,132,0.0,4.0,47,0.00,,,0.00,,2013-02-20 07:11:00,
2013-02-20 01:21:00,24.0,7.0,30.23,SE,137,1.0,5.0,48,0.00,,,0.00,,2013-02-20 07:21:00,
2013-02-20 01:31:00,24.0,8.0,30.23,East,101,4.0,9.0,49,0.00,,,0.00,,2013-02-20 07:31:00,
2013-02-20 01:42:00,24.0,8.0,30.23,East,101,4.0,9.0,49,0.00,,,0.00,,2013-02-20 07:42:00,
2013-02-20 01:51:00,24.0,7.0,30.22,SE,126,2.0,10.0,48,0.00,,,0.00,,2013-02-20 07:51:00,
2013-02-20 02:05:00,24.0,8.0,30.21,East,101,0.0,4.0,49,0.00,,,0.00,,2013-02-20 08:05:00,
2013-02-20 02:11:00,24.0,8.0,30.21,East,101,0.0,4.0,49,0.00,,,0.00,,2013-02-20 08:11:00,
2013-02-20 02:21:00,24.0,8.0,30.21,ENE,71,0.0,3.0,49,0.00,,,0.00,,2013-02-20 08:21:00,
2013-02-20 02:31:00,23.0,7.0,30.20,SE,142,1.0,4.0,50,0.00,,,0.00,,2013-02-20 08:31:00,
2013-02-20 02:41:00,23.0,7.0,30.20,SE,142,1.0,4.0,50,0.00,,,0.00,,2013-02-20 08:41:00,
2013-02-20 02:52:00,23.0,8.0,30.20,SE,144,1.0,5.0,52,0.00,,,0.00,,2013-02-20 08:52:00,
2013-02-20 03:01:00,23.0,8.0,30.19,ESE,110,1.0,7.0,52,0.00,,,0.00,,2013-02-20 09:01:00,
2013-02-20 03:11:00,23.0,8.0,30.19,ESE,110,1.0,7.0,52,0.00,,,0.00,,2013-02-20 09:11:00,
2013-02-20 03:21:00,23.0,8.0,30.19,East,99,0.0,3.0,53,0.00,,,0.00,,2013-02-20 09:21:00,
2013-02-20 03:31:00,23.0,9.0,30.18,SE,137,1.0,5.0,54,0.00,,,0.00,,2013-02-20 09:31:00,
2013-02-20 03:42:00,23.0,9.0,30.18,SE,137,1.0,5.0,54,0.00,,,0.00,,2013-02-20 09:42:00,
2013-02-20 03:51:00,23.0,8.0,30.18,SE,130,0.0,3.0,53,0.00,,,0.00,,2013-02-20 09:51:00,
2013-02-20 04:01:00,24.0,9.0,30.19,SE,130,1.0,4.0,52,0.00,,,0.00,,2013-02-20 10:01:00,
2013-02-20 04:12:00,24.0,9.0,30.19,SE,130,1.0,4.0,52,0.00,,,0.00,,2013-02-20 10:12:00,
2013-02-20 04:22:00,24.0,9.0,30.19,SE,133,2.0,6.0,51,0.00,,,0.00,,2013-02-20 10:22:00,
2013-02-20 04:32:00,24.0,9.0,30.20,SE,132,2.0,11.0,51,0.00,,,0.00,,2013-02-20 10:32:00,
2013-02-20 04:42:00,24.0,9.0,30.20,SE,132,2.0,11.0,51,0.00,,,0.00,,2013-02-20 10:42:00,
2013-02-20 04:51:00,24.0,9.0,30.19,ESE,118,3.0,10.0,51,0.00,,,0.00,,2013-02-20 10:51:00,
2013-02-20 05:02:00,24.0,9.0,30.19,East,99,1.0,7.0,51,0.00,,,0.00,,2013-02-20 11:02:00,
2013-02-20 05:11:00,24.0,9.0,30.18,ESE,121,3.0,8.0,52,0.00,,,0.00,,2013-02-20 11:11:00,
2013-02-20 05:21:00,24.0,9.0,30.18,ESE,121,3.0,8.0,52,0.00,,,0.00,,2013-02-20 11:21:00,
2013-02-20 05:32:00,24.0,9.0,30.18,SE,126,5.0,10.0,51,0.00,,,0.00,,2013-02-20 11:32:00,
2013-02-20 05:42:00,24.0,9.0,30.18,SE,126,5.0,10.0,51,0.00,,,0.00,,2013-02-20 11:42:00,
2013-02-20 05:52:00,24.0,9.0,30.19,ESE,109,3.0,9.0,51,0.00,,,0.00,,2013-02-20 11:52:00,
2013-02-20 06:02:00,24.0,9.0,30.18,SE,139,1.0,6.0,51,0.00,,,0.00,,2013-02-20 12:02:00,
2013-02-20 06:12:00,24.0,9.0,30.18,SE,139,1.0,6.0,51,0.00,,,0.00,,2013-02-20 12:12:00,
2013-02-20 06:21:00,24.0,9.0,30.19,ESE,103,5.0,10.0,51,0.00,,,0.00,,2013-02-20 12:21:00,
2013-02-20 06:32:00,24.0,9.0,30.19,SE,140,3.0,10.0,51,0.00,,,0.00,,2013-02-20 12:32:00,
2013-02-20 06:42:00,24.0,9.0,30.19,SE,140,3.0,10.0,51,0.00,,,0.00,,2013-02-20 12:42:00,
2013-02-20 06:52:00,24.0,8.0,30.18,SE,128,13.0,16.0,50,0.00,,,0.00,,2013-02-20 12:52:00,
2013-02-20 07:01:00,24.0,8.0,30.17,ENE,76,3.0,14.0,50,0.00,,,0.00,,2013-02-20 13:01:00,
2013-02-20 07:11:00,24.0,8.0,30.17,ENE,76,3.0,14.0,50,0.00,,,0.00,,2013-02-20 13:11:00,
2013-02-20 07:22:00,24.0,8.0,30.18,ESE,123,5.0,20.0,50,0.00,,,0.00,,2013-02-20 13:22:00,
2013-02-20 07:31:00,23.0,7.0,30.21,SSE,148,7.0,12.0,50,0.00,,,0.00,,2013-02-20 13:31:00,
2013-02-20 07:42:00,23.0,7.0,30.21,SSE,148,7.0,12.0,50,0.00,,,0.00,,2013-02-20 13:42:00,
2013-02-20 07:51:00,24.0,9.0,30.22,SSE,157,6.0,12.0,51,0.00,,,0.00,,2013-02-20 13:51:00,
2013-02-20 08:01:00,24.0,9.0,30.22,SE,137,6.0,11.0,53,0.00,,,0.00,,2013-02-20 14:01:00,
2013-02-20 08:11:00,24.0,9.0,30.22,SE,137,6.0,11.0,53,0.00,,,0.00,,2013-02-20 14:11:00,
2013-02-20 08:21:00,25.0,9.0,30.21,SE,125,5.0,13.0,51,0.00,,,0.00,,2013-02-20 14:21:00,
2013-02-20 08:32:00,25.0,9.0,30.20,SE,133,6.0,12.0,50,0.00,,,0.00,,2013-02-20 14:32:00,
2013-02-20 08:42:00,25.0,9.0,30.20,SE,133,6.0,12.0,50,0.00,,,0.00,,2013-02-20 14:42:00,
2013-02-20 08:52:00,25.0,8.0,30.20,SE,130,6.0,15.0,48,0.00,,,0.00,,2013-02-20 14:52:00,
2013-02-20 09:01:00,25.0,9.0,30.21,ESE,122,4.0,14.0,49,0.00,,,0.00,,2013-02-20 15:01:00,
2013-02-20 09:11:00,25.0,9.0,30.21,ESE,122,4.0,14.0,49,0.00,,,0.00,,2013-02-20 15:11:00,
2013-02-20 09:22:00,25.0,9.0,30.22,SE,130,11.0,15.0,49,0.00,,,0.00,,2013-02-20 15:22:00,
2013-02-20 09:32:00,24.0,13.0,30.22,SE,132,13.0,17.0,61,0.00,,,0.00,,2013-02-20 15:32:00,
2013-02-20 09:42:00,24.0,13.0,30.22,SE,132,13.0,17.0,61,0.00,,,0.00,,2013-02-20 15:42:00,
2013-02-20 10:01:00,23.0,18.0,30.22,SE,127,11.0,13.0,80,0.00,,,0.00,,2013-02-20 16:01:00,
2013-02-20 10:21:00,23.0,18.0,30.21,SE,129,12.0,15.0,82,0.00,,,0.00,,2013-02-20 16:21:00,
2013-02-20 10:32:00,23.0,19.0,30.21,SE,145,11.0,16.0,83,0.00,,,0.00,,2013-02-20 16:32:00,
2013-02-20 10:42:00,23.0,19.0,30.21,SE,145,11.0,16.0,83,0.00,,,0.00,,2013-02-20 16:42:00,
2013-02-20 10:52:00,22.0,18.0,30.20,ESE,117,10.0,19.0,84,0.00,,,0.00,,2013-02-20 16:52:00,
2013-02-20 11:01:00,23.0,19.0,30.19,ESE,111,11.0,16.0,85,0.00,,,0.00,,2013-02-20 17:01:00,
2013-02-20 11:11:00,23.0,19.0,30.18,SE,128,13.0,17.0,85,0.00,,,0.00,,2013-02-20 17:11:00,
2013-02-20 11:21:00,23.0,19.0,30.18,SE,128,13.0,17.0,85,0.00,,,0.00,,2013-02-20 17:21:00,
2013-02-20 11:32:00,24.0,20.0,30.17,SE,125,9.0,16.0,86,0.00,,,0.00,,2013-02-20 17:32:00,
2013-02-20 11:42:00,24.0,20.0,30.17,SE,125,9.0,16.0,86,0.00,,,0.00,,2013-02-20 17:42:00,
2013-02-20 11:52:00,24.0,20.0,30.17,ESE,120,8.0,12.0,86,0.00,,,0.00,,2013-02-20 17:52:00,
2013-02-20 12:02:00,24.0,20.0,30.16,ESE,123,7.0,12.0,86,0.00,,,0.00,,2013-02-20 18:02:00,
2013-02-20 12:11:00,24.0,20.0,30.16,ESE,123,7.0,12.0,86,0.00,,,0.00,,2013-02-20 18:11:00,
2013-02-20 12:21:00,24.0,21.0,30.15,SE,140,4.0,11.0,87,0.00,,,0.00,,2013-02-20 18:21:00,
2013-02-20 12:32:00,24.0,21.0,30.15,SE,133,4.0,11.0,87,0.00,,,0.00,,2013-02-20 18:32:00,
2013-02-20 12:42:00,24.0,21.0,30.15,SE,133,4.0,11.0,87,0.00,,,0.00,,2013-02-20 18:42:00,
2013-02-20 12:52:00,25.0,22.0,30.14,ESE,115,3.0,14.0,87,0.00,,,0.00,,2013-02-20 18:52:00,
2013-02-20 13:01:00,25.0,22.0,30.13,ESE,109,11.0,15.0,87,0.00,,,0.00,,2013-02-20 19:01:00,
2013-02-20 13:11:00,25.0,22.0,30.13,ESE,109,11.0,15.0,87,0.00,,,0.00,,2013-02-20 19:11:00,
2013-02-20 13:21:00,26.0,23.0,30.13,East,81,9.0,15.0,87,0.00,,,0.00,,2013-02-20 19:21:00,
2013-02-20 13:31:00,27.0,24.0,30.12,ESE,108,10.0,14.0,87,0.00,,,0.00,,2013-02-20 19:31:00,
2013-02-20 13:41:00,27.0,24.0,30.12,ESE,108,10.0,14.0,87,0.00,,,0.00,,2013-02-20 19:41:00,
2013-02-20 13:51:00,27.0,24.0,30.11,ESE,112,5.0,12.0,87,0.00,,,0.00,,2013-02-20 19:51:00,
2013-02-20 14:01:00,28.0,25.0,30.11,SE,130,3.0,14.0,87,0.00,,,0.00,,2013-02-20 20:01:00,
2013-02-20 14:11:00,28.0,25.0,30.10,SE,128,3.0,15.0,87,0.00,,,0.00,,2013-02-20 20:11:00,
2013-02-20 14:21:00,28.0,25.0,30.10,SE,128,3.0,15.0,87,0.00,,,0.00,,2013-02-20 20:21:00,
2013-02-20 14:31:00,29.0,25.0,30.09,SE,137,7.0,14.0,86,0.00,,,0.00,,2013-02-20 20:31:00,
2013-02-20 14:41:00,29.0,25.0,30.08,ESE,123,6.0,16.0,85,0.01,,,0.01,,2013-02-20 20:41:00,
2013-02-20 14:51:00,29.0,25.0,30.08,ESE,123,6.0,16.0,85,0.01,,,0.01,,2013-02-20 20:51:00,
2013-02-20 15:01:00,29.0,25.0,30.07,ESE,119,4.0,13.0,86,0.02,,,0.02,,2013-02-20 21:01:00,
2013-02-20 15:11:00,29.0,25.0,30.07,ESE,119,4.0,13.0,86,0.02,,,0.02,,2013-02-20 21:11:00,
2013-02-20 15:21:00,29.0,25.0,30.07,SE,126,3.0,16.0,85,0.03,,,0.03,,2013-02-20 21:21:00,
2013-02-20 15:31:00,29.0,25.0,30.06,SE,145,2.0,12.0,86,0.03,,,0.03,,2013-02-20 21:31:00,
2013-02-20 15:42:00,29.0,25.0,30.06,SE,145,2.0,12.0,86,0.03,,,0.03,,2013-02-20 21:42:00,
2013-02-20 15:51:00,29.0,25.0,30.06,SE,129,5.0,12.0,86,0.03,,,0.04,,2013-02-20 21:51:00,
2013-02-20 16:01:00,28.0,24.0,30.05,ESE,121,4.0,10.0,86,0.02,,,0.04,,2013-02-20 22:01:00,
2013-02-20 16:11:00,28.0,24.0,30.05,ESE,121,4.0,10.0,86,0.02,,,0.04,,2013-02-20 22:11:00,
2013-02-20 16:21:00,29.0,25.0,30.04,SE,142,6.0,14.0,85,0.01,,,0.04,,2013-02-20 22:21:00,
2013-02-20 16:31:00,29.0,25.0,30.04,SE,139,3.0,14.0,85,0.02,,,0.05,,2013-02-20 22:31:00,
2013-02-20 16:42:00,29.0,25.0,30.04,SE,139,3.0,14.0,85,0.02,,,0.05,,2013-02-20 22:42:00,
2013-02-20 16:51:00,29.0,25.0,30.03,ESE,113,3.0,12.0,85,0.01,,,0.05,,2013-02-20 22:51:00,
2013-02-20 17:01:00,29.0,25.0,30.04,SE,134,7.0,14.0,85,0.01,,,0.05,,2013-02-20 23:01:00,
2013-02-20 17:12:00,29.0,25.0,30.04,SE,134,7.0,14.0,85,0.01,,,0.05,,2013-02-20 23:12:00,
2013-02-20 17:22:00,28.0,24.0,30.04,SE,138,0.0,11.0,85,0.01,,,0.05,,2013-02-20 23:22:00,
2013-02-20 17:32:00,28.0,24.0,30.03,ESE,123,5.0,11.0,85,0.00,,,0.05,,2013-02-20 23:32:00,
2013-02-20 17:42:00,28.0,24.0,30.03,ESE,123,5.0,11.0,85,0.00,,,0.05,,2013-02-20 23:42:00,
2013-02-20 17:52:00,27.0,23.0,30.03,East,83,3.0,16.0,85,0.00,,,0.05,,2013-02-20 23:52:00,
2013-02-20 18:03:00,27.0,23.0,30.02,East,91,2.0,11.0,86,0.00,,,0.05,,2013-02-21 00:03:00,
2013-02-20 18:11:00,27.0,23.0,30.02,East,91,2.0,11.0,86,0.00,,,0.05,,2013-02-21 00:11:00,
2013-02-20 18:21:00,27.0,23.0,30.02,SE,126,1.0,12.0,86,0.00,,,0.05,,2013-02-21 00:21:00,
2013-02-20 18:32:00,27.0,23.0,30.01,SE,138,2.0,12.0,86,0.00,,,0.05,,2013-02-21 00:32:00,
2013-02-20 18:42:00,27.0,23.0,30.01,SE,138,2.0,12.0,86,0.00,,,0.05,,2013-02-21 00:42:00,
2013-02-20 18:52:00,26.0,22.0,30.01,ESE,108,1.0,9.0,86,0.00,,,0.05,,2013-02-21 00:52:00,
2013-02-20 19:01:00,26.0,22.0,30.02,SSE,152,5.0,14.0,86,0.00,,,0.05,,2013-02-21 01:01:00,
2013-02-20 19:11:00,26.0,22.0,30.02,SSE,152,5.0,14.0,86,0.00,,,0.05,,2013-02-21 01:11:00,
2013-02-20 19:21:00,26.0,22.0,30.02,ESE,117,2.0,11.0,85,0.00,,,0.05,,2013-02-21 01:21:00,
2013-02-20 19:32:00,26.0,22.0,30.03,SE,142,3.0,10.0,84,0.00,,,0.05,,2013-02-21 01:32:00,
2013-02-20 19:42:00,26.0,22.0,30.03,SE,142,3.0,10.0,84,0.00,,,0.05,,2013-02-21 01:42:00,
2013-02-20 19:51:00,26.0,22.0,30.03,SE,125,4.0,11.0,84,0.00,,,0.05,,2013-02-21 01:51:00,
2013-02-20 20:01:00,26.0,22.0,30.04,SE,132,5.0,8.0,84,0.00,,,0.05,,2013-02-21 02:01:00,
2013-02-20 20:11:00,26.0,22.0,30.04,SE,132,5.0,8.0,84,0.00,,,0.05,,2013-02-21 02:11:00,
2013-02-20 20:21:00,26.0,22.0,30.05,SE,126,7.0,11.0,84,0.00,,,0.05,,2013-02-21 02:21:00,
2013-02-20 20:32:00,27.0,23.0,30.05,SE,128,5.0,14.0,84,0.00,,,0.05,,2013-02-21 02:32:00,
2013-02-20 20:42:00,27.0,23.0,30.05,SE,128,5.0,14.0,84,0.00,,,0.05,,2013-02-21 02:42:00,
2013-02-20 20:51:00,27.0,23.0,30.05,SE,128,5.0,14.0,84,0.00,,,0.05,,2013-02-21 02:51:00,
2013-02-20 21:01:00,25.0,21.0,30.06,SE,124,6.0,14.0,84,0.00,,,0.05,,2013-02-21 03:01:00,
2013-02-20 21:12:00,25.0,21.0,30.06,SE,124,6.0,14.0,84,0.00,,,0.05,,2013-02-21 03:12:00,
2013-02-20 21:21:00,25.0,21.0,30.06,SE,128,5.0,15.0,85,0.00,,,0.05,,2013-02-21 03:21:00,
2013-02-20 21:32:00,24.0,20.0,30.06,ESE,123,3.0,15.0,86,0.00,,,0.05,,2013-02-21 03:32:00,
2013-02-20 21:42:00,24.0,20.0,30.06,ESE,123,3.0,15.0,86,0.00,,,0.05,,2013-02-21 03:42:00,
2013-02-20 21:51:00,23.0,20.0,30.06,ESE,105,3.0,11.0,87,0.00,,,0.05,,2013-02-21 03:51:00,
2013-02-20 22:01:00,23.0,20.0,30.06,ESE,103,2.0,7.0,88,0.00,,,0.05,,2013-02-21 04:01:00,
2013-02-20 22:11:00,23.0,20.0,30.06,ESE,103,2.0,7.0,88,0.00,,,0.05,,2013-02-21 04:11:00,
2013-02-20 22:21:00,23.0,20.0,30.06,East,86,2.0,9.0,88,0.00,,,0.05,,2013-02-21 04:21:00,
2013-02-20 22:32:00,23.0,20.0,30.05,ENE,74,1.0,4.0,88,0.00,,,0.05,,2013-02-21 04:32:00,
2013-02-20 22:42:00,23.0,20.0,30.05,ENE,74,1.0,4.0,88,0.00,,,0.05,,2013-02-21 04:42:00,
2013-02-20 22:51:00,23.0,20.0,30.04,East,101,1.0,5.0,89,0.00,,,0.05,,2013-02-21 04:51:00,
2013-02-20 23:02:00,23.0,20.0,30.04,ENE,78,2.0,4.0,88,0.00,,,0.05,,2013-02-21 05:02:00,
2013-02-20 23:12:00,23.0,20.0,30.04,ENE,78,2.0,4.0,88,0.00,,,0.05,,2013-02-21 05:12:00,
2013-02-20 23:22:00,23.0,20.0,30.04,SE,124,1.0,5.0,88,0.00,,,0.05,,2013-02-21 05:22:00,
2013-02-20 23:34:00,23.0,20.0,30.04,East,87,2.0,10.0,87,0.00,,,0.05,,2013-02-21 05:34:00,
2013-02-20 23:44:00,23.0,20.0,30.04,East,87,2.0,10.0,87,0.00,,,0.05,,2013-02-21 05:44:00,
2013-02-20 23:52:00,23.0,19.0,30.03,ENE,61,1.0,6.0,86,0.00,,,0.05,,2013-02-21 05:52:00,